Location: ??? ????
(38.0580°N, 23.1536°E)
Time: 23:27:08
(UTC+00:00)

SL-16 R/B - Pass Details

Date: 13 December 2025
Orbit: 841 x 845 km, 71.0° (Epoch: 14 January)

Event Time Altitude Azimuth Distance (km) Brightness Sun altitude
Rises 17:21:19 0° 199° (SSW) 3,381 5.7 -25.4°
Reaches altitude 10° 17:23:44 10° 199° (SSW) 2,450 4.9 -25.9°
Maximum altitude 17:29:23 87° 111° (ESE) 848 2.0 -26.9°
Enters shadow 17:29:44 79° 37° (NE) 861 2.0 -27.0°
